EW6790 Weather Reports


time (UTC)temp
F
wind
direction
speed
knots
gust
knots
rain 1hr
in
rain 24hr
in
rain mn
in
humidity
%
barometer
mb
20260901021600 75 322 1.7 2.6 0.00 0.00 0.00 84 1011.0
20260901021503 75 321 1.7 2.6 0.00 0.00 0.00 84 1010.9
20260901020100 75 321 0.0 0.0 0.00 0.00 0.00 82 1010.8
20260901014537 77 323 2.6 4.3 0.00 0.00 0.00 79 1010.6
20260901013035 76 331 0.0 0.9 0.00 0.00 0.00 83 1010.6
20260901011513 77 331 0.0 0.9 0.00 0.00 0.00 79 1010.3
20260901010022 78 331 0.0 0.9 0.00 0.00 0.00 76 1010.1
20260901004551 80 331 0.9 3.5 0.00 0.00 0.00 71 1010.1
20260901003049 82 328 0.0 2.6 0.00 0.00 0.00 69 1010.1
20260901001529 84 326 0.0 1.7 0.00 0.00 0.00 69 1010.0
20260901000029 85 328 0.0 2.6 0.00 0.00 0.00 67 1010.0
20260831234511 86 328 0.9 2.6 0.00 0.00 0.00 66 1010.2
20260831233009 89 317 0.0 2.6 0.00 0.00 0.00 63 1010.1
20260831231556 88 295 0.0 0.9 0.00 0.00 0.00 61 1010.1
20260831230114 88 330 0.0 2.6 0.00 0.00 0.00 59 1010.0
20260831224531 89 323 0.9 1.7 0.00 0.00 0.00 59 1009.9
20260831223029 88 286 0.0 0.9 0.00 0.00 0.00 64 1009.9
20260831221523 89 288 1.7 2.6 0.00 0.00 0.00 57 1009.8
20260831220011 88 291 0.0 4.3 0.00 0.00 0.00 62 1009.8
20260831214551 89 266 0.9 3.5 0.00 0.00 0.00 58 1009.8
20260831213054 88 319 0.0 3.5 0.00 0.00 0.00 60 1009.8
20260831211529 87 319 0.9 4.3 0.00 0.00 0.00 63 1009.7
20260831210026 87 322 0.9 3.5 0.00 0.00 0.00 64 1009.7
20260831204507 85 259 0.9 3.5 0.00 0.00 0.00 74 1009.7
20260831203003 85 294 0.9 3.5 0.00 0.00 0.00 75 1009.6
20260831201545 84 304 0.0 3.5 0.00 0.00 0.00 75 1009.6
20260831200040 83 323 2.6 7.0 0.00 0.00 0.00 77 1009.4
20260831194537 82 322 1.7 7.8 0.00 0.00 0.00 81 1009.6
20260831193016 81 321 2.6 6.1 0.00 0.00 0.00 86 1009.3
20260831191556 80 268 1.7 6.1 0.00 0.00 0.00 87 1009.2
20260831190106 80 335 0.9 7.8 0.00 0.00 0.00 87 1009.0
20260831184544 80 322 2.6 6.1 0.00 0.00 0.00 86 1008.9
20260831183034 80 328 4.3 7.8 0.00 0.00 0.00 86 1009.0
20260831181521 81 319 0.9 7.8 0.00 0.00 0.00 86 1009.0
20260831180011 80 318 1.7 7.8 0.00 0.00 0.00 87 1009.1
20260831174557 80 324 3.5 7.0 0.00 0.00 0.00 87 1009.3
20260831173047 79 319 2.6 5.2 0.00 0.00 0.00 87 1009.5
20260831171542 79 326 0.9 4.3 0.00 0.00 0.00 87 1009.6
20260831170105 79 290 0.0 1.7 0.00 0.00 0.00 87 1009.7
20260831164534 78 293 0.0 4.3 0.00 0.00 0.00 87 1009.5
20260831163033 78 304 0.0 3.5 0.00 0.00 0.00 87 1009.4
20260831161528 78 344 1.7 3.5 0.00 0.00 0.00 87 1009.1
20260831160032 77 289 0.9 4.3 0.00 0.00 0.00 87 1009.3
20260831154527 77 271 0.0 2.6 0.00 0.00 0.00 87 1009.2
20260831153025 76 304 0.0 3.5 0.00 0.00 0.00 87 1009.0
20260831151509 77 278 0.9 3.5 0.00 0.00 0.00 87 1008.9
20260831150005 76 278 0.0 5.2 0.00 0.00 0.00 87 1008.7
20260831144546 77 268 0.0 3.5 0.00 0.00 0.00 87 1008.7
20260831143046 76 272 0.0 6.1 0.00 0.00 0.00 87 1008.5
20260831141526 75 284 2.6 6.1 0.00 0.00 0.00 85 1008.4
20260831140027 74 288 2.6 4.3 0.00 0.00 0.00 81 1008.2
20260831134506 73 238 3.5 6.1 0.00 0.00 0.00 76 1008.1
20260831133004 73 245 5.2 7.8 0.00 0.00 0.00 72 1008.1
20260831131546 73 260 3.5 6.1 0.00 0.00 0.00 70 1007.8
20260831130045 72 233 2.6 5.2 0.00 0.00 0.00 71 1007.8
20260831124524 72 217 4.3 7.0 0.00 0.00 0.00 71 1007.4
20260831123022 72 250 2.6 10.4 0.00 0.00 0.00 68 1007.3
20260831121507 71 224 4.3 7.0 0.00 0.00 0.00 59 1006.8
20260831120100 0 0.0 0.0 0.00 0.00 0.00 1006.9
20260831114556 0 0.0 0.0 0.00 0.00 0.00 1006.5
20260831113033 0 0.0 0.0 0.00 0.00 0.00 1006.5
20260831111532 0 0.0 0.0 0.00 0.00 0.00 1006.2
20260831110013 0 0.0 0.0 0.00 0.00 0.00 1006.2
20260831104509 0 0.0 0.0 0.00 0.00 0.00 1006.3
20260831103004 0 0.0 0.0 0.00 0.00 0.00 1006.2
20260831101603 0 0.0 0.0 0.00 0.00 0.00 1006.2
20260831100058 71 165 4.3 7.0 0.00 0.00 0.00 52 1006.1
20260831094557 71 181 4.3 6.1 0.00 0.00 0.00 53 1006.2
20260831093056 70 186 4.3 6.1 0.00 0.00 0.00 56 1006.2
20260831091607 71 198 3.5 6.1 0.00 0.00 0.00 55 1006.1
20260831090038 71 180 5.2 7.0 0.00 0.00 0.00 57 1006.2
20260831084536 71 187 4.3 7.0 0.00 0.00 0.00 57 1006.2
20260831083023 71 195 6.1 7.8 0.00 0.00 0.00 60 1005.9
20260831081516 71 189 4.3 7.0 0.00 0.00 0.00 63 1005.8
20260831080106 72 186 6.1 10.4 0.00 0.00 0.00 64 1005.8
20260831074557 72 174 6.1 10.4 0.00 0.00 0.00 62 1005.7
20260831073039 72 185 5.2 8.7 0.00 0.00 0.00 62 1005.9
20260831071537 72 181 5.2 10.4 0.00 0.00 0.00 60 1005.9
20260831070020 72 169 5.2 8.7 0.00 0.00 0.00 58 1006.1
20260831064518 71 183 5.2 7.8 0.00 0.00 0.00 58 1006.2
20260831063100 71 169 3.5 7.8 0.00 0.00 0.00 58 1006.2
20260831061559 71 132 4.3 7.0 0.00 0.00 0.00 54 1006.5
20260831060042 71 172 5.2 7.0 0.00 0.00 0.00 57 1006.5
20260831054539 71 140 3.5 6.1 0.00 0.00 0.00 57 1006.5
20260831053025 71 162 2.6 5.2 0.00 0.00 0.00 60 1006.6
20260831051520 71 125 1.7 5.2 0.00 0.00 0.00 62 1006.8
20260831050100 71 140 1.7 5.2 0.00 0.00 0.00 65 1006.8
20260831044558 71 150 1.7 4.3 0.00 0.00 0.00 69 1006.7
20260831043037 72 160 1.7 4.3 0.00 0.00 0.00 72 1006.7
20260831041548 72 197 2.6 6.1 0.00 0.00 0.00 76 1006.5
20260831040020 73 185 5.2 9.6 0.00 0.00 0.00 78 1006.4
20260831034516 73 174 5.2 10.4 0.00 0.00 0.00 79 1006.2
20260831033059 73 147 5.2 12.2 0.00 0.00 0.00 81 1006.4
20260831031609 73 166 6.1 12.2 0.00 0.00 0.00 78 1006.5
20260831030043 73 162 7.8 12.2 0.00 0.00 0.00 75 1006.4
20260831024550 73 150 6.1 10.4 0.00 0.00 0.00 77 1006.4
20260831023019 73 148 4.3 8.7 0.00 0.00 0.00 84 1006.6